CZ-2D DEB, 44612

Orbit data source: Space-Track

CZ-2D DEB, 44612 is space debris in SSO originally from a launch on Mon, 09 Oct 2017 UTC launched from the Jiuquan Satellite Launch Center, China (JSC). Debris objects in space refer to the collection of defunct objects orbiting the Earth. Examples of debris include non-operational satellites, rocket bodies, and fragments generated from explosions, collisions, or faulty payload assembly.

Loading next visibility...
Identifier
44612, 2017-060E
Orbit
SSO
Country
Flag of CNCN / PRC
Related business
Manufacturer
Unknown
Mission
Spacecraft
Bus & Motor
Unknown
Mass
Unknown
Launch date (UTC)
2017-10-09 (8 years ago)
Launch vehicle
Unknown
Launch site
Jiuquan Satellite Launch Center, China (JSC)
Object type
Payload
Rocket body
Debris
Shape & HBR
Unknown shape, 0.1 m
Radar Cross Section
Small (<0.1 m²)

Expand to show TLE details & history
Last TLE update: 11 hours ago

TLE from 11 hours ago
0 CZ-2D DEB
1 44612U 17060E   25298.98451097  .00006305  00000-0  62782-3 0  9992
2 44612  97.5929 305.9646 0011807 147.9628 212.2311 14.91899831431932
Epoch: 2025-10-25T23:37Z
TLE epoch observation values (Epoch: 2025-10-25T23:37:41.747Z)
Latitude
-0.00007°
Longitude
-83.06655°
Altitude
602.025 km
Speed
7.555 km/s
True Right ascension
20h 23m 51s
True Declination
0° 00' 00"
Sunlit
Object was in daylight at epoch
Visualization orbit readout
Latitude
Unknown
Longitude
Unknown
Altitude
Unknown
Speed
Unknown
Apparent Right ascension
Unknown
Apparent Declination
Unknown
Sunlit
N/A
Visualization observer readout
Local Sidereal Time
06:14:14
Azimuth
Unknown
Elevation
Unknown
Doppler factor
Unknown
Orbital elements
Apogee altitude
597.25 km
Perigee altitude
580.797 km
Semi-major axis
6,967.16 km
Eccentricity
0.00118
Inclination
97.5929°
RAAN
305.9646°
Arg. of periapsis
147.9628°
True anomaly
212.15903°
Mean anomaly
212.2311°
Eccentric anomaly
212.19506°
Mean motion
3.73215 °/min
Orbital period
96.46 mins
BSTAR
0.00062782
Loading maneuver chart data...
Computing Atmospheric mass density...
Loading historical data...
Loading historical data...
Loading historical data...
Loading historical data...
Loading historical data...
Loading historical data...
Loading historical data...
Other satellites on launch #60 in the year 2017 (2017-10-09 UTC)

Documentation

Showing up to 5 results
|